K9JM Weather Reports


Display with metric or nautical units.
time (UTC)temp
F
wind
direction
speed
MPH
gust
MPH
rain 1hr
in
rain 24hr
in
rain mn
in
humidity
%
barometer
mb
20260831060017 70 0.0 1.0 0.00 0.00 0.00 44 1013.1
20260831054536 70 0.0 3.0 0.00 0.00 0.00 44 1013.2
20260831053016 71 0.0 3.0 0.00 0.00 0.00 43 1013.0
20260831051516 71 0.0 3.0 0.00 0.00 0.00 41 1013.2
20260831050016 72 0.0 0.0 0.00 0.00 0.00 40 1013.3
20260831044536 73 0.0 1.0 0.00 0.00 0.00 39 1013.0
20260831043016 73 0.0 0.0 0.00 0.00 0.00 38 1013.2
20260831041516 74 0.0 0.0 0.00 0.00 0.00 38 1013.2
20260831040016 74 0.0 0.0 0.00 0.00 0.00 38 1012.8
20260831034516 74 0.0 0.0 0.00 0.00 0.00 39 1012.8
20260831033016 75 0.0 0.0 0.00 0.00 0.00 40 1012.8
20260831031516 75 0.0 0.0 0.00 0.00 0.00 38 1012.6
20260831030016 76 0.0 0.0 0.00 0.00 0.00 36 1012.5
20260831024516 77 0.0 0.0 0.00 0.00 0.00 33 1012.0
20260831023016 78 0.0 0.0 0.00 0.00 0.00 32 1012.2
20260831021516 79 0.0 0.0 0.00 0.00 0.00 31 1012.0
20260831020016 80 0.0 0.0 0.00 0.00 0.00 30 1012.2
20260831014516 80 0.0 1.0 0.00 0.00 0.00 29 1012.0
20260831013016 81 0.0 1.0 0.00 0.00 0.00 28 1012.2
20260831011536 82 0.0 0.0 0.00 0.00 0.00 28 1012.4
20260831010016 82 0.0 2.0 0.00 0.00 0.00 28 1012.5
20260831004536 81 113 1.0 4.0 0.00 0.00 0.00 28 1012.5
20260831003016 82 113 1.0 7.0 0.00 0.00 0.00 27 1012.7
20260831001536 83 0.0 4.0 0.00 0.00 0.00 27 1012.7
20260831000016 83 0.0 2.0 0.00 0.00 0.00 27 1012.7
20260830234536 83 135 1.0 4.0 0.00 0.00 0.00 27 1012.7
20260830233016 84 158 1.0 3.0 0.00 0.00 0.00 27 1013.0
20260830231516 84 135 1.0 6.0 0.00 0.00 0.00 27 1013.3
20260830230016 85 0.0 3.0 0.00 0.00 0.00 27 1013.3
20260830224516 85 113 1.0 4.0 0.00 0.00 0.00 27 1013.4
20260830223016 85 225 1.0 4.0 0.00 0.00 0.00 26 1013.5
20260830221516 84 203 2.0 9.0 0.00 0.00 0.00 27 1013.6
20260830220016 85 135 1.0 7.0 0.00 0.00 0.00 26 1013.8
20260830214516 86 203 1.0 5.0 0.00 0.00 0.00 25 1014.0
20260830213016 85 270 1.0 6.0 0.00 0.00 0.00 24 1014.1
20260830211516 85 158 1.0 6.0 0.00 0.00 0.00 26 1014.2
20260830210016 86 135 1.0 6.0 0.00 0.00 0.00 26 1014.3
20260830204516 86 180 1.0 6.0 0.00 0.00 0.00 26 1014.5
20260830203016 85 203 1.0 4.0 0.00 0.00 0.00 28 1014.5
20260830201516 85 203 1.0 5.0 0.00 0.00 0.00 26 1014.4
20260830200016 85 180 2.0 7.0 0.00 0.00 0.00 28 1014.5
20260830194516 85 135 1.0 6.0 0.00 0.00 0.00 29 1014.6
20260830193056 85 225 1.0 4.0 0.00 0.00 0.00 30 1014.6
20260830191516 84 135 1.0 6.0 0.00 0.00 0.00 30 1014.5
20260830190036 85 113 2.0 5.0 0.00 0.00 0.00 28 1014.5
20260830184516 84 225 1.0 6.0 0.00 0.00 0.00 29 1014.6
20260830183015 84 135 1.0 5.0 0.00 0.00 0.00 28 1014.7
20260830181516 83 113 1.0 4.0 0.00 0.00 0.00 29 1014.8
20260830180015 83 113 1.0 6.0 0.00 0.00 0.00 29 1014.9
20260830174515 84 0.0 4.0 0.00 0.00 0.00 30 1015.0
20260830173035 82 113 1.0 4.0 0.00 0.00 0.00 30 1014.7
20260830171515 83 113 1.0 4.0 0.00 0.00 0.00 29 1014.7
20260830170016 82 0.0 2.0 0.00 0.00 0.00 31 1014.8
20260830164536 80 68 1.0 4.0 0.00 0.00 0.00 33 1014.7
20260830163035 79 90 1.0 3.0 0.00 0.00 0.00 33 1014.8
20260830161515 79 68 1.0 4.0 0.00 0.00 0.00 33 1014.7
20260830160015 77 68 2.0 4.0 0.00 0.00 0.00 34 1014.5
20260830154515 77 68 1.0 4.0 0.00 0.00 0.00 34 1014.8
20260830153015 76 0.0 3.0 0.00 0.00 0.00 35 1014.6
20260830151515 74 0.0 4.0 0.00 0.00 0.00 35 1014.6
20260830150015 73 68 1.0 4.0 0.00 0.00 0.00 35 1014.6
20260830144515 71 23 1.0 5.0 0.00 0.00 0.00 37 1014.5
20260830143016 68 0.0 2.0 0.00 0.00 0.00 39 1014.0
20260830141516 67 0.0 2.0 0.00 0.00 0.00 40 1013.9
20260830140015 66 0 1.0 2.0 0.00 0.00 0.00 41 1013.7
20260830134555 65 0 1.0 2.0 0.00 0.00 0.00 41 1013.6
20260830133035 65 0 1.0 3.0 0.00 0.00 0.00 41 1013.7
20260830131515 65 0 1.0 3.0 0.00 0.00 0.00 41 1013.7
20260830130015 65 0 1.0 2.0 0.00 0.00 0.00 41 1013.7
20260830124515 66 0 1.0 2.0 0.00 0.00 0.00 41 1013.5
20260830123035 66 0 1.0 2.0 0.00 0.00 0.00 40 1013.5
20260830121535 66 23 1.0 5.0 0.00 0.00 0.00 40 1013.5
20260830120015 66 0.0 2.0 0.00 0.00 0.00 40 1013.5
20260830114515 66 0 1.0 2.0 0.00 0.00 0.00 40 1013.9
20260830113035 66 0 1.0 2.0 0.00 0.00 0.00 40 1013.9
20260830111515 66 0.0 2.0 0.00 0.00 0.00 40 1013.8
20260830110017 67 0 1.0 2.0 0.00 0.00 0.00 40 1013.9
20260830104517 67 0 1.0 3.0 0.00 0.00 0.00 40 1013.9
20260830103017 66 0.0 0.0 0.00 0.00 0.00 39 1013.9
20260830101517 67 0.0 0.0 0.00 0.00 0.00 39 1013.8
20260830100017 67 0.0 0.0 0.00 0.00 0.00 39 1013.8
20260830094517 67 0.0 2.0 0.00 0.00 0.00 39 1014.0
20260830093019 66 0.0 2.0 0.00 0.00 0.00 39 1014.0
20260830091517 66 0.0 1.0 0.00 0.00 0.00 39 1013.8
20260830090017 66 0.0 2.0 0.00 0.00 0.00 38 1013.8
20260830084517 66 0 1.0 2.0 0.00 0.00 0.00 38 1014.0
20260830083017 66 0.0 2.0 0.00 0.00 0.00 38 1014.1
20260830081517 66 45 1.0 2.0 0.00 0.00 0.00 38 1013.9
20260830080017 65 0.0 3.0 0.00 0.00 0.00 39 1014.1
20260830074517 65 0.0 2.0 0.00 0.00 0.00 40 1014.1
20260830073015 65 0.0 2.0 0.00 0.00 0.00 40 1014.2
20260830071517 65 0.0 2.0 0.00 0.00 0.00 41 1014.1
20260830070017 65 0.0 2.0 0.00 0.00 0.00 40 1014.0
20260830064516 66 0.0 2.0 0.00 0.00 0.00 40 1014.2
20260830063036 66 0.0 2.0 0.00 0.00 0.00 39 1014.1
20260830061536 67 0.0 3.0 0.00 0.00 0.00 39 1014.2